Location: Bouillancy
(49.1149°N, 2.9308°E)
Time: 07:37:27
(UTC+00:00)

COSMOS 2455 - Pass Details

Date: 30 September 2020
Orbit: 898 x 911 km, 67.1° (Epoch: 30 October)

Event Time Altitude Azimuth Distance (km) Brightness Sun altitude
Rises 19:39:20 0° 209° (SSW) 3,520 6.0 -21.9°
Reaches altitude 10° 19:41:49 10° 209° (SSW) 2,585 5.3 -22.2°
Maximum altitude 19:47:49 81° 122° (ESE) 925 2.7 -23.1°
Drops below altitude 10° 19:53:53 10° 37° (NE) 2,607 5.1 -24.1°
Sets 19:56:24 0° 36° (NE) 3,553 5.8 -24.4°
